RH
92 71 58 74 76 84 95 97 100 100 100 100 98 100 100 100 95 94 75 68 79 77 73 87 100 100 100 100 100 100 100 81 81
92 90 62 98 82 95 91 100 100 100 100 100 100 100 100 100 100 86 79 75 73 81 86 77 84 100 100 100 100 100 100 100 100
93 95 81 97 100 99 99 100 100 100 100 100 100 100 100 100 100 96 100 92 93 99 90 99 100 100 100 100 100 99 94 100 99
73 86 93 97 100 100 100 94 100 100 97 100 100 99 90 100 91 96 100 99 88 100 100 100 100 100 99 98 92 95 96 100 99
78 91 100 100 97 100 100 100 100 100 100 100 100 95 79 78 72 91 100 100 100 100 88 81 97 99 98 94 91 98 100 100 99
47 90 100 100 100 100 100 100 100 100 100 94 97 79 100 100 78 72 93 100 100 100 98 100 100 100 93 82 100 100 100 100 92
43 100 100 100 88 67 82 100 100 100 100 100 99 87 100 96 76 81 62 98 88 100 100 100 100 100 98 87 98 100 100 100 87
69 100 100 100 99 100 100 100 100 100 100 100 100 96 89 100 100 100 79 88 88 100 95 77 82 80 92 99 100 100 100 92 83
99 100 100 99 100 100 100 100 88 100 100 100 100 97 100 77 85 99 100 85 99 100 100 84 73 65 80 87 89 77 76 78 87
100 100 100 88 100 100 100 100 100 100 100 100 100 100 100 100 100 83 89 79 74 99 95 100 96 73 75 57 61 64 93 100 100
100 100 100 100 100 100 100 100 100 100 100 100 100 92 100 99 88 86 100 100 100 100 99 90 66 88 80 76 81 82 80 95 100
100 100 100 100 100 100 100 100 84 91 94 100 100 100 100 100 100 92 100 100 100 100 100 100 100 100 99 100 100 100 100 100 95
71 100 100 100 100 97 100 100 100 100 86 84 99 89 100 100 100 100 74 89 84 96 100 99 100 100 91 78 83 95 98 95 87
28 86 100 100 100 100 100 100 100 99 86 44 49 47 58 94 100 99 100 100 96 86 98 100 81 74 81 100 97 94 86 90 98
28 34 89 100 100 100 100 100 100 100 100 96 82 96 96 100 100 100 100 100 100 100 100 100 100 88 92 77 87 94 99 100 98
34 33 41 98 100 100 100 100 100 100 100 100 100 100 100 100 100 100 100 100 100 100 100 100 100 100 98 100 100 100 96 84 86
65 38 35 55 100 100 100 100 100 100 100 100 100 100 100 100 100 100 100 91 90 100 99 100 97 93 98 99 98 95 80 68 68
100 78 52 50 64 100 100 100 100 100 100 100 100 100 100 100 100 100 100 100 100 100 100 100 97 77 76 80 68 69 72 77 86
100 87 74 72 59 79 100 100 100 100 100 100 100 100 100 100 100 100 100 100 100 100 100 100 100 100 98 88 69 77 75 68 85
100 100 84 100 86 59 90 100 100 100 100 100 100 100 100 100 100 100 100 100 100 100 100 100 100 100 100 100 100 100 100 100 100
Wind_Speed
33 29 25 31 35 34 31 34 41 42 41 41 42 40 38 40 39 35 31 30 31 31 32 35 36 38 40 41 39 40 41 36 30
40 34 32 33 29 30 29 31 37 39 39 40 42 40 38 39 41 40 36 32 31 30 32 32 33 36 33 34 37 36 34 33 31
43 45 40 36 32 32 31 31 33 34 33 28 34 37 36 36 34 35 32 29 31 31 32 33 33 34 36 37 37 36 36 33 33
40 39 44 40 38 37 32 32 36 36 33 35 39 35 30 32 33 35 36 36 33 32 32 31 33 34 35 37 36 36 35 33 31
50 42 43 41 41 39 38 35 37 38 39 32 41 31 36 39 33 31 29 30 34 32 34 34 33 33 33 32 34 37 37 35 34
49 48 46 43 37 40 43 42 39 40 41 41 40 40 38 42 39 36 33 29 30 32 31 32 33 35 34 32 32 30 32 30 30
46 49 42 38 35 39 49 50 44 40 45 44 47 37 40 40 41 36 36 34 35 34 35 36 34 33 35 33 31 30 31 32 34
48 45 35 35 34 42 49 54 49 45 42 47 50 48 46 39 41 42 39 36 33 34 39 39 40 36 32 32 33 33 37 37 36
54 48 48 55 46 50 36 53 61 45 44 50 47 49 45 54 52 49 45 41 40 40 38 41 39 37 37 37 37 39 37 35 34
59 58 52 63 48 50 55 60 56 52 54 51 48 45 49 45 44 44 43 43 44 42 44 43 41 41 42 41 40 38 35 34 35
64 69 64 58 56 53 54 53 59 65 61 55 57 54 48 45 48 53 52 48 48 47 47 47 48 44 44 41 39 39 38 41 43
69 78 73 68 60 53 56 60 62 71 70 64 65 60 55 54 62 57 60 56 57 53 52 49 50 51 49 48 48 47 49 48 48
71 81 78 76 71 61 58 58 64 64 68 68 68 66 62 59 54 61 58 60 62 60 61 64 58 58 59 59 56 56 57 55 54
71 83 85 80 78 70 66 68 66 64 68 72 71 68 73 76 76 69 63 66 67 66 66 62 66 62 62 61 60 63 61 61 60
77 80 87 88 79 79 78 73 68 69 72 75 75 73 72 73 86 82 75 73 67 67 69 69 69 69 65 63 61 62 64 65 66
74 79 82 90 89 79 81 82 79 78 77 75 76 82 77 82 79 76 74 72 77 79 75 74 75 75 71 69 67 69 69 67 65
66 80 81 82 93 89 84 89 87 87 84 78 80 79 77 75 76 80 82 82 78 81 82 83 86 86 84 80 77 78 74 72 69
78 73 80 80 83 96 97 93 92 90 91 92 87 86 85 84 85 84 80 80 79 82 87 87 91 94 91 86 84 81 80 76 75
68 74 76 73 82 91 103 101 102 101 96 96 94 93 91 88 88 91 92 94 93 90 92 89 84 86 84 86 90 82 84 83 81
91 80 78 71 84 87 89 108 110 109 110 108 106 101 100 95 93 94 93 98 88 88 87 86 85 86 83 87 87 89 86 86 86
Wind_Direction
269 257 236 238 243 248 246 234 233 231 233 234 238 244 245 240 240 240 240 243 238 228 229 232 236 241 244 248 251 257 261 266 263
268 263 234 231 236 246 243 237 232 233 234 236 239 239 243 241 242 240 246 241 237 232 234 232 234 240 244 249 252 255 258 258 260
265 268 228 224 227 234 235 233 230 228 221 227 235 241 239 239 236 237 235 236 236 237 237 237 237 241 243 245 250 253 255 257 260
254 255 229 226 228 230 238 236 230 225 219 226 232 230 231 240 238 236 238 240 241 235 237 238 242 246 243 245 250 254 255 254 259
258 234 225 226 228 231 228 228 231 225 225 233 242 231 250 254 250 238 235 238 235 237 238 239 241 245 247 246 249 252 255 258 261
235 226 220 218 222 229 225 234 231 233 232 227 234 223 246 247 252 245 238 243 243 245 241 241 245 247 245 248 255 256 255 255 262
225 216 217 220 227 238 232 234 231 234 229 240 242 237 242 247 242 244 239 247 245 238 237 236 238 243 243 248 251 257 252 258 264
215 205 204 206 218 222 225 230 235 230 236 242 241 235 223 234 235 235 242 248 250 246 249 243 238 239 242 249 251 258 259 265 270
205 191 192 198 207 221 222 230 236 236 233 237 237 235 238 241 244 238 240 241 238 240 245 250 246 246 246 256 256 262 264 265 268
202 194 195 200 205 206 219 224 228 228 229 232 224 230 245 243 239 245 247 239 239 238 246 251 254 252 259 260 260 257 262 263 265
202 193 203 202 202 214 222 220 228 229 227 228 230 219 232 237 240 248 242 234 234 241 255 260 262 260 262 268 265 261 257 257 262
204 197 206 208 210 219 220 227 234 238 237 239 231 227 229 244 248 245 237 242 242 246 252 255 257 259 260 253 251 250 254 264 261
210 204 207 207 214 216 217 223 226 233 241 240 234 230 225 230 234 236 244 245 248 251 256 258 261 263 264 262 257 257 262 266 267
214 213 209 212 215 216 219 221 227 234 242 247 246 249 243 231 231 233 241 250 253 254 256 258 260 261 262 262 265 264 264 266 269
218 219 216 213 216 219 223 223 230 234 227 233 239 245 238 239 235 238 243 247 249 251 256 257 260 265 263 263 265 266 266 266 269
225 222 223 219 215 221 221 224 223 227 229 225 229 231 234 238 237 241 240 244 245 248 253 257 261 265 263 263 263 267 267 267 269
230 225 224 225 219 216 216 221 222 225 227 224 226 230 231 233 234 239 246 250 249 250 250 255 261 262 261 262 263 263 264 266 268
245 228 225 227 227 219 217 215 218 217 221 225 226 230 235 236 238 242 243 246 249 252 258 259 261 264 263 263 264 265 266 266 267
223 227 228 231 232 229 220 219 216 219 219 223 228 229 232 235 240 241 243 247 248 255 253 255 255 261 265 267 268 272 274 272 274
229 231 229 234 237 231 231 223 223 222 224 227 229 231 232 233 234 240 242 245 244 246 244 245 251 252 255 256 257 256 257 263 264